User: anonymous   Login
Location: Clinton NY
(43.0598°N, 75.3602°W)
Time: 16:20:34
(UTC-04:00)
Language:

ISS - Orbit

View from above orbital plane
View from above orbital plane
View from above satellite
View from above satellite

Ground track
Ground track

The orbit data is extracted from the following two-line orbital elements,

1 25544U 98067A   15149.46685133  .00005333  00000-0  84392-4 0  9990
2 25544 051.6440 177.5010 0003997 358.8117 150.1155 15.55225358945124
Epoch (UTC): 29 May 2015 11:12:15
Eccentricity: 0.0003997
inclination: 51.6440°
perigee height: 399 km
apogee height: 404 km
right ascension of ascending node: 177.5010°
argument of perigee: 358.8117°
revolutions per day: 15.55225358
mean anomaly at epoch: 150.1155°
orbit number at epoch: 94512

The dashed part of the orbit path shows where the satellite is in the earth's shadow,  

DLR